Terminal Aerodrome Forecast
Issued by NWS Sterling, VA

Home | Current Version | Previous Version | Text Only | Print | Product List | Glossary On
Versions: 1 2 3 4 5 6 7 8 9 10 11 12 13 14 15 16 17 18 19 20 21 22 23 24 25 26 27
000
FTUS41 KLWX 220400 AAA
TAFBWI
TAF AMD
KBWI 220408Z 2204/2306 29013G25KT P6SM BKN090 BKN110
     FM220800 30010G18KT P6SM BKN090
     FM221400 31013G23KT P6SM SCT050
     FM222300 32006KT P6SM SKC=

USA.gov is the U.S. government's official web portal to all federal, state and local government web resources and services.